This is the latest recevied weather packets stored in our database for station/object YO2LDK-13. If no packets are shown the sender has not sent any weather packets the latest 10 day(s).
| Time | Temp. | Humidity | Pressure | Rain* | Wind** | Luminosity | Snow |
|---|---|---|---|---|---|---|---|
| 1777789520 | 12.78° C | 60% | 1012.2 hPa | 0 mm | - | 343 W/m² | - |
| 1777789219 | 12.22° C | 61% | 1011.9 hPa | 0 mm | - | 334 W/m² | - |
| 1777788919 | 12.22° C | 60% | 1011.9 hPa | 0 mm | - | 138 W/m² | - |
| 1777788620 | 11.67° C | 62% | 1011.9 hPa | 0 mm | - | 333 W/m² | - |
| 1777788319 | 11.67° C | 63% | 1011.9 hPa | 0 mm | - | 45 W/m² | - |
| 1777788019 | 11.67° C | 64% | 1011.9 hPa | 0 mm | - | 40 W/m² | - |
| 1777787719 | 11.11° C | 66% | 1011.9 hPa | 0 mm | - | 36 W/m² | - |
| 1777787420 | 11.11° C | 67% | 1011.9 hPa | 0 mm | - | 40 W/m² | - |
| 1777787120 | 10.56° C | 68% | 1011.9 hPa | 0 mm | - | 46 W/m² | - |
| 1777786819 | 10.56° C | 68% | 1011.9 hPa | 0 mm | - | 36 W/m² | - |
| 1777786520 | 10.56° C | 69% | 1011.9 hPa | 0 mm | - | 37 W/m² | - |
| 1777786219 | 10° C | 71% | 1011.5 hPa | 0 mm | - | 31 W/m² | - |
| 1777785919 | 9.44° C | 71% | 1011.9 hPa | 0 mm | - | 30 W/m² | - |
| 1777785619 | 9.44° C | 74% | 1011.5 hPa | 0 mm | - | 31 W/m² | - |
| 1777785320 | 8.89° C | 75% | 1011.9 hPa | 0 mm | - | 30 W/m² | - |
| 1777785019 | 8.33° C | 76% | 1011.5 hPa | 0 mm | - | 27 W/m² | - |
| 1777784719 | 7.78° C | 77% | 1011.5 hPa | 0 mm | - | 29 W/m² | - |
| 1777784419 | 7.22° C | 79% | 1011.5 hPa | 0 mm | - | 25 W/m² | - |
| 1777784119 | 6.67° C | 80% | 1011.5 hPa | 0 mm | - | 24 W/m² | - |
| 1777783819 | 6.67° C | 81% | 1011.5 hPa | 0 mm | - | 22 W/m² | - |
| 1777783519 | 6.11° C | 82% | 1011.2 hPa | 0 mm | - | 21 W/m² | - |
| 1777783219 | 5.56° C | 83% | 1011.5 hPa | 0 mm | - | 20 W/m² | - |
| 1777782919 | 5° C | 85% | 1011.5 hPa | 0 mm | - | 19 W/m² | - |
| 1777782620 | 4.44° C | 86% | 1011.5 hPa | 0 mm | - | 18 W/m² | - |
| 1777782327 | 4.44° C | 87% | 1011.5 hPa | 0 mm | - | 17 W/m² | - |
* Rain latest hour (hover to see other rain measurements)
** Current wind speed in m/s (hover to see current wind gust speed)